Wind_Speed
14 14 13 12 9 4 4 2 10 2 3 8 10 7 6 11 8 6 20 17 4 1 1 4 2 2 3 6 6 5 9 11 11 10 11 12 12 12 12 12 11 11 10 10 8 7 7 7 6
17 17 15 15 11 10 9 7 5 4 7 7 8 6 10 7 12 18 17 10 6 3 1 1 2 1 3 5 6 7 10 12 12 11 11 12 12 12 12 12 11 11 10 8 7 6 5 5 5
20 19 17 14 18 15 10 13 13 11 10 9 4 5 7 11 11 11 11 6 7 7 4 2 2 2 3 6 7 8 9 11 12 13 13 13 13 13 12 11 10 9 8 7 5 4 4 4 4
24 23 22 19 24 13 10 11 9 8 6 7 6 7 10 14 13 11 10 8 9 9 8 6 5 5 5 8 8 9 10 11 12 13 14 14 14 13 12 10 9 7 6 5 3 3 3 4 3
25 26 22 23 26 24 21 22 23 21 21 19 16 15 14 15 19 16 12 10 7 9 10 10 10 9 9 11 11 11 11 12 13 13 14 14 14 13 12 10 8 6 5 4 2 1 2 2 3
21 21 19 22 27 23 19 20 24 24 24 23 22 20 19 19 18 19 13 12 12 10 10 12 14 12 12 13 13 13 14 14 15 15 14 15 14 13 12 10 8 6 5 3 2 1 1 2 2
18 20 22 23 23 19 17 18 21 24 25 24 25 24 22 24 20 22 21 16 16 14 15 14 16 15 16 17 17 17 17 16 16 17 16 16 15 14 12 10 9 7 6 4 4 3 3 3 2
19 20 22 21 21 20 21 22 23 23 22 24 26 27 26 25 25 20 23 23 22 20 18 18 18 18 17 18 20 21 20 19 19 19 18 18 17 15 14 12 11 9 8 7 6 5 5 4 4
20 21 22 20 18 20 22 21 21 22 23 24 23 25 26 27 29 28 25 26 24 24 22 21 21 21 21 20 20 22 23 23 23 22 21 21 19 17 15 14 13 12 10 9 9 8 6 6 6
20 21 17 21 23 25 26 27 25 24 26 25 25 25 27 26 27 31 30 28 27 26 25 23 24 24 23 22 22 23 25 26 25 24 23 21 20 18 17 16 14 13 12 12 11 9 8 8 8
19 19 20 20 23 26 28 28 28 27 28 26 27 27 28 30 28 28 28 27 31 31 30 26 24 26 26 25 25 26 27 27 27 26 25 23 22 20 19 18 17 15 14 13 12 11 10 10 9
14 17 18 20 21 24 26 28 30 27 26 24 26 28 29 31 34 31 28 27 31 35 34 32 27 27 28 29 29 29 29 29 29 28 28 27 24 22 21 19 18 17 16 15 15 13 12 12 11
14 18 21 22 22 24 25 27 29 32 27 26 26 28 29 31 36 37 34 29 29 31 34 35 34 31 30 30 32 32 30 30 30 30 29 28 26 25 24 23 22 20 19 18 17 15 14 13 12
14 18 20 19 19 22 24 27 29 28 28 28 28 29 31 32 34 39 38 36 34 31 31 36 38 35 36 33 32 31 32 32 30 30 30 30 27 26 26 26 25 23 21 21 19 17 16 15 13
16 21 18 10 8 14 21 27 26 23 24 25 28 30 33 34 37 38 40 41 39 37 34 35 36 38 39 37 35 33 32 32 32 30 30 30 29 28 28 28 27 25 25 23 22 20 17 16 15
16 13 10 8 21 17 22 26 18 20 23 27 30 32 34 37 38 40 41 43 43 43 40 38 38 39 43 42 39 36 35 33 32 32 33 30 29 29 30 30 29 28 27 26 24 22 20 18 17
11 15 20 18 19 21 21 33 29 32 31 33 33 35 35 35 35 38 41 45 46 43 44 44 43 42 40 43 44 44 40 38 35 34 32 34 33 32 32 32 31 31 30 29 27 24 22 21 19
19 21 20 24 24 31 32 41 36 30 34 34 34 36 38 38 37 36 39 42 44 46 44 43 45 44 43 41 39 45 48 44 41 39 36 35 38 36 33 33 34 33 32 31 29 25 25 23 22
19 24 25 25 25 28 32 43 41 38 38 36 34 32 31 35 37 39 40 42 41 40 41 42 45 47 48 46 44 42 47 49 47 42 42 40 37 39 36 35 36 35 34 32 29 28 27 26 24
21 23 26 27 21 27 32 49 44 37 34 31 25 22 22 25 28 31 34 39 44 42 39 40 43 45 46 47 47 44 40 41 48 49 48 43 38 38 39 37 36 36 34 33 31 30 28 27 25
18 23 28 31 30 23 21 46 30 26 26 18 19 18 15 25 26 21 22 29 39 44 42 42 40 42 44 45 44 48 45 45 43 51 51 47 41 41 40 39 37 36 34 33 31 30 30 28 26
27 22 26 26 23 16 17 24 31 25 21 18 13 19 30 20 20 20 22 23 26 32 41 40 39 38 37 41 45 46 46 46 45 42 41 50 45 42 41 40 39 37 33 33 31 30 31 29 27
17 21 21 24 29 31 22 18 10 21 23 16 16 13 8 14 17 17 18 13 17 22 22 43 39 37 37 35 34 37 42 45 44 42 35 42 47 44 41 39 41 40 36 36 38 31 33 30 28
19 23 28 25 19 8 7 18 11 12 16 22 21 10 19 13 17 22 18 17 14 17 20 29 43 36 35 35 36 35 35 42 45 47 42 39 43 45 43 41 42 42 41 38 31 38 34 32 31
17 19 8 4 3 5 7 15 27 25 19 20 24 22 22 24 25 27 26 22 21 19 16 22 36 39 35 36 32 37 37 32 41 44 40 35 41 44 44 43 41 41 39 39 35 30 33 35 33
18 9 6 6 5 17 25 12 7 18 20 17 21 29 30 31 28 30 34 34 28 24 22 22 25 34 40 38 36 29 35 39 33 39 35 34 41 44 41 36 36 32 30 33 37 35 38 37 36
6 6 8 13 17 13 10 14 21 14 18 22 25 22 22 24 28 29 29 29 30 30 28 26 26 29 32 38 42 37 33 34 37 33 38 36 38 38 35 31 31 33 37 42 46 47 37 38 35
10 9 6 5 5 9 14 28 26 20 18 20 26 28 30 33 30 28 27 28 28 30 31 31 28 30 33 32 36 41 38 38 37 39 34 41 39 47 39 34 33 34 35 36 33 40 43 35 32
8 9 9 10 9 6 11 15 21 24 27 26 29 28 33 40 39 35 33 33 35 34 35 35 35 31 30 33 35 36 38 38 39 40 39 42 45 57 49 40 39 36 40 40 38 40 48 38 35
17 18 17 10 10 17 24 39 29 18 17 23 41 54 54 49 47 49 51 45 43 40 40 41 41 39 38 35 35 37 41 39 38 39 41 38 49 42 48 39 40 33 40 40 39 37 50 37 37
Wind_Direction
271 277 284 293 293 257 246 161 170 330 329 333 322 271 243 248 280 308 319 325 273 327 327 80 67 83 124 117 121 141 152 162 166 168 163 155 152 150 143 141 136 128 118 111 102 98 100 97 87
277 276 277 281 266 256 260 262 264 241 296 317 316 301 257 277 272 278 307 326 241 303 22 85 103 96 153 147 144 149 157 163 163 164 158 152 151 149 149 145 139 128 118 108 102 99 88 80 74
275 273 273 272 263 250 262 262 259 266 273 285 283 284 250 241 246 270 298 283 245 288 271 202 162 162 190 171 158 156 158 162 166 161 157 154 153 152 151 147 140 128 118 116 113 100 76 71 74
265 266 264 254 255 253 252 266 255 252 254 245 245 267 250 256 244 250 264 238 230 259 253 233 203 191 198 194 173 164 164 164 167 165 163 160 159 159 154 151 144 135 127 125 119 95 52 60 66
257 258 254 251 253 253 247 252 258 259 261 260 257 248 251 250 250 250 248 227 236 243 243 231 214 207 205 201 190 178 175 172 173 173 171 169 167 165 162 159 156 152 149 149 149 117 38 42 53
255 252 245 245 252 249 248 246 251 252 255 254 251 246 244 242 247 244 233 233 225 230 226 232 222 209 213 207 201 192 186 183 181 182 181 179 178 175 172 171 172 176 174 185 191 210 309 335 36
252 252 248 249 252 253 250 248 250 250 249 250 249 246 243 240 238 231 231 239 219 229 235 224 226 222 214 211 205 203 197 194 192 192 191 190 188 185 183 184 189 194 199 208 229 244 268 287 320
254 252 253 250 255 257 253 248 250 254 249 248 249 250 243 242 241 235 234 235 227 228 233 230 224 226 227 223 213 206 205 202 202 203 202 201 198 196 194 196 198 204 212 219 237 248 264 273 284
252 250 256 260 259 253 254 251 252 255 260 253 247 248 246 241 239 237 235 230 230 228 233 232 226 223 224 226 223 218 212 208 207 209 209 208 206 205 204 205 208 213 219 226 239 248 258 266 272
246 251 259 253 254 257 258 264 264 261 262 262 255 250 242 241 237 236 235 232 226 228 236 237 235 226 226 228 226 224 221 219 213 213 216 218 215 214 212 214 217 222 226 231 241 249 258 264 270
251 251 251 253 257 262 268 269 272 273 267 264 260 247 247 241 239 237 233 229 219 221 230 236 236 236 231 228 229 227 226 226 223 218 220 221 223 224 224 221 224 227 232 238 242 246 253 261 263
257 259 262 264 263 268 273 273 276 273 273 269 263 256 241 241 240 243 241 230 215 218 223 225 224 229 232 229 230 230 228 228 229 229 225 224 225 227 231 231 230 230 233 238 243 246 252 256 260
268 265 269 274 283 284 280 276 274 271 275 272 264 257 253 237 236 236 241 241 233 221 222 225 225 224 225 229 228 229 229 231 228 231 231 233 231 230 231 230 232 234 237 241 244 246 252 254 261
272 272 278 286 283 278 275 270 270 272 273 266 264 263 256 250 240 235 237 236 237 234 230 229 227 225 227 226 226 227 231 228 229 230 233 229 232 232 236 234 233 235 236 240 243 247 252 255 259
302 300 303 295 264 302 286 280 270 272 265 264 260 258 260 255 250 244 240 238 237 236 235 236 237 229 230 231 225 227 228 228 226 226 232 234 231 228 232 235 237 237 237 240 242 246 251 254 255
319 316 328 261 303 308 301 290 287 272 272 266 265 266 263 258 254 251 249 245 242 238 235 237 240 238 234 234 231 228 226 227 225 228 223 226 230 231 229 232 234 237 239 242 242 244 246 250 250
324 318 315 321 310 316 309 291 287 288 283 279 274 270 268 266 263 258 255 252 248 248 241 235 238 239 238 242 237 233 232 231 225 228 229 220 221 228 230 230 231 235 237 240 242 243 244 246 244
315 319 310 311 313 312 305 290 288 292 286 278 271 270 272 271 265 259 256 254 252 250 250 246 240 237 236 236 241 239 235 233 229 230 227 224 221 221 225 230 230 232 236 239 240 243 244 243 242
308 307 304 306 312 309 306 296 290 300 295 290 287 284 274 267 267 264 257 257 253 249 247 244 244 238 236 238 238 241 240 237 236 233 232 227 222 220 220 224 231 231 234 239 241 241 243 244 244
299 303 303 307 311 310 308 296 299 304 299 300 290 277 278 269 261 257 254 252 253 246 238 238 236 239 237 236 236 239 243 245 241 239 236 232 228 220 219 223 227 232 235 236 239 240 242 244 245
292 294 300 299 311 311 308 299 309 305 318 319 279 264 267 268 262 271 263 254 245 245 232 230 228 231 233 234 233 235 234 239 242 239 236 232 229 229 221 223 226 229 234 236 238 240 242 243 244
292 291 295 301 312 305 321 292 316 312 314 307 300 276 292 266 260 273 271 257 243 242 240 228 223 225 227 230 233 234 234 238 246 248 243 238 229 230 229 225 226 228 229 241 241 239 240 240 238
288 296 291 292 290 295 287 262 299 301 299 324 324 278 240 275 264 268 277 261 243 237 252 231 226 225 227 228 232 232 230 231 234 240 240 239 237 232 235 230 227 228 220 226 242 244 243 240 241
294 294 297 290 277 261 282 230 292 297 312 305 304 265 268 288 271 264 264 262 256 247 246 236 226 228 224 230 231 232 236 230 230 234 240 234 234 231 235 241 229 224 231 232 224 240 245 240 242
292 312 307 277 220 271 291 291 269 288 306 300 297 291 274 267 271 264 259 250 250 249 244 236 226 229 232 230 231 233 234 240 232 228 229 232 229 229 233 237 231 222 228 229 228 231 245 245 242
313 279 268 290 292 299 296 256 270 311 302 292 285 292 280 270 264 262 260 261 253 246 245 238 236 234 235 236 240 237 236 242 242 233 215 219 221 222 229 220 205 204 211 229 241 231 246 246 241
300 254 264 279 282 282 246 267 287 303 300 308 301 295 292 285 271 264 250 241 238 239 240 240 236 236 239 240 237 242 241 243 245 241 223 212 214 209 196 212 218 221 222 228 236 246 241 241 243
257 266 283 258 292 294 281 292 288 293 292 294 289 287 288 283 271 249 239 238 236 236 237 238 233 231 231 232 233 236 235 238 244 240 234 217 209 207 212 220 223 228 229 233 233 230 229 243 240
267 252 234 249 245 277 295 291 300 295 295 289 284 280 284 277 266 261 257 260 258 253 241 239 239 230 226 227 227 226 221 220 226 232 234 224 216 222 230 222 227 228 229 232 235 231 230 232 234
254 252 248 248 262 254 276 281 297 277 273 286 293 295 292 283 273 271 266 260 264 261 245 242 243 243 236 238 231 228 227 219 220 225 224 231 221 229 244 229 232 230 223 231 232 245 223 225 234
Height
3164 3165 3166 3167 3172 3169 3168 3170 3170 3170 3170 3168 3167 3166 3166 3166 3169 3171 3168 3168 3169 3168 3168 3168 3169 3169 3169 3169 3170 3171 3173 3175 3177 3179 3181 3182 3184 3185 3185 3186 3187 3187 3188 3188 3189 3189 3190 3190 3190
3161 3162 3164 3164 3168 3166 3167 3168 3168 3168 3169 3167 3167 3166 3165 3167 3166 3165 3166 3165 3167 3168 3168 3169 3170 3170 3170 3171 3171 3173 3174 3176 3178 3180 3182 3183 3185 3185 3186 3187 3187 3188 3189 3190 3190 3191 3191 3191 3191
3158 3159 3162 3162 3160 3162 3164 3164 3165 3166 3167 3168 3167 3165 3164 3163 3164 3164 3164 3165 3166 3168 3169 3169 3170 3171 3172 3173 3173 3174 3175 3177 3179 3180 3182 3184 3185 3186 3187 3188 3188 3189 3190 3191 3191 3192 3192 3192 3191
3155 3157 3158 3158 3156 3159 3161 3161 3161 3163 3164 3165 3166 3165 3164 3162 3162 3163 3163 3163 3164 3166 3168 3169 3170 3170 3172 3173 3174 3175 3176 3178 3180 3181 3183 3184 3185 3187 3188 3189 3190 3190 3191 3192 3192 3192 3192 3192 3191
3151 3152 3153 3152 3153 3154 3157 3156 3157 3159 3160 3162 3163 3163 3162 3162 3161 3161 3162 3163 3164 3165 3166 3167 3168 3170 3171 3173 3174 3174 3176 3178 3180 3182 3183 3184 3186 3187 3188 3189 3190 3190 3191 3192 3192 3192 3192 3192 3192
3147 3147 3148 3148 3148 3151 3152 3153 3153 3153 3155 3157 3158 3159 3159 3159 3159 3160 3161 3161 3162 3164 3164 3166 3167 3168 3170 3172 3173 3174 3176 3177 3179 3181 3183 3184 3186 3187 3188 3189 3189 3190 3191 3192 3192 3192 3192 3192 3192
3142 3142 3143 3144 3146 3148 3148 3148 3147 3148 3150 3151 3153 3154 3156 3156 3157 3157 3158 3159 3160 3161 3162 3163 3165 3166 3167 3169 3171 3173 3175 3177 3179 3180 3182 3183 3185 3186 3187 3188 3188 3189 3190 3190 3191 3191 3191 3191 3191
3139 3139 3139 3141 3142 3144 3142 3143 3143 3143 3145 3147 3148 3148 3152 3152 3153 3154 3155 3156 3157 3158 3159 3161 3162 3164 3166 3167 3168 3170 3173 3175 3178 3179 3181 3183 3184 3185 3186 3186 3187 3188 3188 3189 3189 3189 3190 3190 3190
3134 3135 3134 3136 3138 3137 3136 3138 3139 3139 3140 3141 3143 3144 3146 3146 3148 3149 3151 3152 3153 3155 3156 3157 3159 3160 3162 3164 3166 3169 3170 3172 3175 3177 3179 3181 3182 3183 3184 3185 3185 3186 3186 3187 3187 3188 3189 3189 3189
3129 3130 3130 3131 3130 3130 3132 3132 3134 3136 3135 3136 3138 3138 3140 3141 3142 3143 3144 3146 3148 3151 3153 3153 3155 3157 3159 3161 3163 3165 3167 3170 3171 3174 3177 3179 3181 3182 3183 3183 3184 3185 3185 3185 3185 3186 3187 3188 3188
3124 3125 3125 3125 3126 3126 3126 3127 3127 3127 3129 3130 3130 3133 3133 3135 3136 3136 3137 3138 3140 3143 3146 3149 3150 3153 3155 3156 3158 3160 3163 3166 3169 3171 3174 3176 3179 3181 3181 3182 3183 3183 3183 3184 3184 3184 3184 3185 3185
3122 3121 3121 3121 3121 3122 3122 3121 3120 3120 3121 3122 3122 3123 3127 3128 3130 3131 3132 3132 3132 3134 3138 3141 3143 3146 3149 3151 3154 3156 3157 3161 3165 3168 3170 3172 3175 3177 3179 3181 3181 3181 3181 3182 3182 3182 3182 3183 3183
3117 3116 3115 3114 3117 3116 3116 3115 3114 3112 3115 3115 3115 3116 3117 3119 3121 3123 3125 3127 3127 3127 3130 3133 3135 3138 3142 3144 3146 3150 3153 3156 3159 3162 3166 3169 3171 3174 3175 3176 3178 3178 3179 3179 3179 3179 3179 3180 3181
3113 3112 3111 3112 3111 3110 3109 3107 3107 3109 3108 3108 3107 3108 3108 3110 3112 3114 3116 3118 3121 3122 3124 3124 3128 3132 3134 3136 3140 3143 3147 3150 3153 3157 3160 3162 3166 3169 3172 3173 3174 3175 3175 3175 3176 3176 3177 3177 3178
3107 3107 3107 3106 3106 3105 3103 3102 3101 3103 3102 3101 3101 3100 3101 3102 3103 3105 3107 3109 3111 3114 3117 3118 3121 3123 3125 3128 3132 3136 3139 3142 3146 3150 3154 3158 3160 3162 3165 3168 3170 3171 3172 3172 3172 3173 3174 3174 3175
3104 3102 3104 3104 3101 3101 3097 3092 3094 3095 3095 3095 3094 3094 3093 3093 3095 3096 3099 3100 3102 3105 3109 3111 3113 3116 3119 3121 3125 3128 3131 3135 3139 3143 3147 3151 3154 3157 3159 3161 3164 3166 3168 3168 3169 3170 3171 3171 3171
3100 3100 3099 3098 3097 3095 3095 3084 3086 3087 3088 3087 3086 3086 3086 3087 3089 3089 3089 3091 3093 3095 3099 3102 3105 3108 3112 3115 3119 3121 3124 3127 3131 3134 3139 3142 3146 3150 3153 3155 3158 3159 3162 3163 3164 3166 3167 3167 3167
3098 3097 3097 3095 3094 3090 3086 3074 3076 3079 3077 3076 3076 3077 3078 3078 3078 3081 3080 3080 3082 3086 3089 3092 3095 3099 3102 3104 3108 3112 3115 3119 3123 3127 3130 3134 3137 3141 3146 3150 3151 3153 3156 3158 3160 3162 3162 3163 3163
3098 3095 3092 3092 3091 3085 3079 3068 3064 3070 3067 3066 3066 3067 3066 3066 3068 3068 3070 3070 3072 3076 3080 3082 3084 3088 3092 3095 3099 3102 3106 3113 3117 3119 3123 3125 3130 3134 3138 3142 3145 3147 3149 3153 3156 3157 3158 3158 3159
3095 3092 3089 3086 3086 3082 3075 3055 3058 3059 3059 3057 3056 3056 3056 3056 3057 3057 3057 3060 3061 3064 3069 3073 3075 3077 3081 3084 3090 3093 3099 3102 3106 3111 3115 3120 3124 3127 3129 3134 3138 3141 3144 3146 3149 3151 3153 3154 3154
3093 3090 3086 3083 3078 3077 3071 3047 3051 3052 3050 3048 3045 3047 3048 3047 3047 3049 3048 3048 3049 3052 3057 3061 3065 3068 3071 3074 3077 3081 3087 3089 3093 3098 3104 3110 3116 3120 3123 3127 3131 3135 3138 3141 3144 3147 3148 3149 3150
3086 3086 3081 3079 3076 3074 3073 3050 3048 3043 3044 3045 3045 3043 3042 3041 3042 3041 3040 3039 3041 3044 3047 3052 3057 3059 3063 3065 3067 3071 3077 3081 3087 3092 3097 3101 3105 3111 3116 3120 3124 3127 3132 3136 3139 3141 3143 3145 3146
3083 3080 3078 3075 3071 3067 3067 3064 3040 3041 3040 3040 3038 3036 3037 3037 3036 3035 3034 3033 3034 3036 3039 3043 3047 3051 3054 3058 3060 3063 3067 3071 3077 3081 3086 3090 3096 3103 3110 3114 3118 3122 3122 3128 3135 3136 3138 3140 3143
3079 3076 3072 3067 3064 3061 3055 3056 3038 3039 3037 3035 3034 3035 3034 3032 3031 3030 3029 3029 3029 3030 3031 3032 3038 3043 3047 3050 3053 3057 3060 3063 3066 3071 3076 3081 3087 3094 3100 3106 3109 3113 3119 3123 3123 3131 3133 3135 3137
3078 3075 3069 3061 3057 3052 3051 3049 3035 3034 3033 3031 3028 3026 3025 3023 3024 3023 3022 3023 3023 3024 3024 3027 3030 3034 3038 3042 3045 3049 3053 3055 3058 3063 3066 3071 3078 3085 3091 3097 3101 3106 3112 3116 3120 3122 3124 3129 3131
3074 3075 3073 3065 3053 3047 3050 3037 3030 3029 3027 3025 3022 3020 3016 3015 3015 3015 3014 3015 3016 3017 3018 3020 3022 3025 3029 3033 3038 3042 3045 3048 3052 3055 3059 3064 3070 3077 3082 3089 3094 3099 3103 3109 3113 3116 3120 3124 3124
3072 3071 3070 3065 3056 3050 3037 3029 3024 3022 3022 3020 3016 3014 3012 3009 3008 3008 3007 3007 3006 3008 3010 3013 3015 3017 3020 3023 3027 3032 3037 3041 3045 3049 3053 3057 3062 3069 3075 3082 3088 3093 3095 3100 3104 3110 3112 3117 3118
3068 3069 3067 3064 3056 3039 3024 3022 3017 3018 3016 3014 3012 3010 3008 3006 3002 3000 3000 3001 3000 3000 3002 3004 3006 3010 3012 3015 3018 3022 3027 3033 3038 3041 3044 3050 3055 3063 3066 3072 3077 3082 3087 3093 3095 3100 3105 3109 3111
3065 3064 3063 3061 3057 3044 3025 3012 3014 3012 3010 3005 3002 3001 2999 2996 2994 2991 2990 2989 2989 2991 2992 2994 2997 3000 3004 3007 3010 3014 3018 3022 3028 3032 3039 3042 3046 3050 3045 3055 3068 3074 3079 3086 3089 3092 3095 3098 3102
3058 3058 3059 3055 3047 3041 3031 3000 3005 3003 3002 2998 2992 2989 2988 2985 2981 2979 2976 2976 2977 2980 2982 2984 2986 2990 2994 2998 3000 3004 3009 3014 3017 3023 3030 3035 3037 3041 3033 3051 3059 3065 3071 3078 3082 3088 3071 3088 3093